[ hide orbit diagram ]
For accurate long-term ephemerides, please instead use our Horizons system.This orbit viewer was implemented using two-body methods, and hence should not be used for determining accurate long-term trajectories (over several years or decades) or planetary encounter circumstances.
Orbital Elements at Epoch 2459200.5 (2020-Dec-17.0) TDB
Reference: JPL 42 (heliocentric ecliptic J2000)
Element | Value | Uncertainty (1-sigma) | Units |
e | .1003289414337459 | 1.4162e-08 | |
a | 2.925759333714431 | 9.3805e-09 | au |
q | 2.63222099687296 | 4.1059e-08 | au |
i | 3.259588091576568 | 2.5058e-07 | deg |
node | 99.45340377614832 | 1.1765e-05 | deg |
peri | 230.5182689755367 | 1.8336e-05 | deg |
M | 40.52625810541364 | 1.1431e-05 | deg |
tp | 2458994.726080020870 (2020-May-25.22608002) | 5.8033e-05 | TDB |
period | 1827.916384478416 5.00 | 8.7909e-06 2.407e-08 | d yr |
n | .1969455512609367 | 9.4716e-10 | deg/d |
Q | 3.219297670555901 | 1.0322e-08 | au |
|
| | Orbit Determination Parameters
Additional Information
|
[ show covariance matrix ]
Physical Parameter Table
Parameter |
Symbol |
Value |
Units |
Sigma |
Reference |
Notes |
absolute magnitude |
H |
11.74 |
|
n/a |
E2021B10 |
|
diameter |
diameter |
14.212 |
km |
0.097 |
urn:nasa:pds:neowise_diameters_albedos::2.0[mainbelt] (http://adsabs.harvard.edu/abs/2014ApJ...791..121M) |
|
rotation period |
rot_per |
22.447 |
h |
n/a |
LCDB (Rev. 2020-October); Warner et al., 2009 |
Result based on less than full coverage, so that the period may be wrong by 30 percent or so. Published Reference List: [Behrend, R. (2018) Observatoire de Geneve web site, http://obswww.unige.ch/~behrend/page_cou.html] [Durech, J.; Hanus, J.; Ali-Lagoa, V. (2018) Astron. Astrophys. 617, A57.] [Erasmus, N.; Navarro-Meza, S.; McNeill, A.; Trilling, D.E.; et al. (2020) Ap. J. Suppl. Ser. 247, A13.] |
geometric albedo |
albedo |
0.126 |
|
0.010 |
urn:nasa:pds:neowise_diameters_albedos::2.0[mainbelt] (http://adsabs.harvard.edu/abs/2014ApJ...791..121M) |
|
|
1809 Prometheus (2522 P-L) Discovered 1960-Sep-24 by PLS at Palomar |
These planets have all been discovered as a result of the Palomar survey of faint minor planets and subsequently identified with planets observed at other oppositions. In Sept. and Oct. 1960, T. Gehrels exposed 130 plates with the 122 cm Schmidt camera at Palomar. In the following years C. J. van Houten and I. van Houten-Groeneveld measured these plates astrometrically and photometrically at Leiden. P. Herget, Cincinnati, computed the orbits of the planets found on the NORC computer, Dahlgren, Virginia, USA. |
Note: "planet" implies "minor planet" |
Reference: DISCOVERY.DB | Last Updated: 2003-08-29 |
|
[ show close-approach data ]
Alternate Designations
2522 P-L = 1943 EA1 = 1955 SW = 1955 VA = 1965 UR |
|
|